Location: Street
(51.1247°N, 2.7429°W)
Time: 07:04:47
(UTC+00:00)

SR - Pass Details

Date: 03 December 2020
Orbit: 576 x 880 km, 66.7° (Epoch: 16 January)

Event Time Altitude Azimuth Distance (km) Brightness Sun altitude
Rises 03:20:41 0° 313° (NW) 3,215 - -41.9°
Reaches altitude 10° 03:23:27 10° 299° (WNW) 2,339 - -41.5°
Maximum altitude 03:27:34 23° 249° (WSW) 1,683 - -40.8°
Drops below altitude 10° 03:31:53 10° 200° (SSW) 2,459 - -40.2°
Sets 03:34:53 0° 186° (S) 3,423 - -39.7°
